La Porte, IN

1:23 AM CST on December 08, 2016 (GMT -0600)
La Porte Municipal

Weather History for KPPO - April, 2013

Change the Weather History Date:

Monday, April 22, 2013

  Actual Average (KVPZ) Record (KVPZ)
Temperature  
Mean Temperature 48 °F 52 °F  
Max Temperature 64 °F 62 °F 82 °F (2007)
Min Temperature 31 °F 41 °F 31 °F (2003)
Degree Days  
Heating Degree Days 18 14  
Month to date heating degree days 384  
Since 1 July heating degree days 5961  
Cooling Degree Days 0 0  
Month to date cooling degree days 0  
Year to date cooling degree days 0  
Moisture  
Dew Point 31 °F    
Average Humidity 54    
Maximum Humidity 92    
Minimum Humidity 25    
Precipitation  
Precipitation 0.00 in 0.10 in 1.05 in (1999)
Month to date precipitation 2.44  
Year to date precipitation 8.09  
Sea Level Pressure  
Sea Level Pressure 30.24 in    
Wind  
Wind Speed 5 mph (SE)    
Max Wind Speed 10 mph    
Max Gust Speed 18 mph    
Visibility 10 miles    
Events      
T = Trace of Precipitation, MM = Missing Value Source: NWS Daily Summary

Daily Weather History Graph

Daily Weather History Graph

Search for Another Location

Airport or City:

Trip Planner

Search our weather history database for the weather conditions in past years. The results will help you decide how hot, cold, wet, or windy it might be!

Date:

Astronomy

Apr. 22, 2013 Rise Set
Actual Time 5:56 AM CDT 7:35 PM CDT
Civil Twilight 5:26 AM CDT 8:04 PM CDT
Nautical Twilight 4:51 AM CDT 8:40 PM CDT
Astronomical Twilight 4:13 AM CDT 9:18 PM CDT
Moon 4:21 PM CDT (4/22) 3:53 AM CDT (4/22)
Length of Visible Light 14h 38m
Length of Day
13h 39m
Waxing Gibbous, 88% of the Moon is Illuminated
Apr 22
Waxing Gibbous
Apr 25
Full
May 2
Last Quarter
May 9
New
May 17
First Quarter

Hourly Weather History & Observations

Time (CDT) Temp. Windchill Dew Point Humidity Pressure Visibility Wind Dir Wind Speed Gust Speed Precip Events Conditions
12:15 AM 39.6 °F 36.3 °F 30.0 °F 69% 30.37 in 10.0 mi SE 4.6 mph - N/A   Clear
12:35 AM 39.2 °F 35.9 °F 30.0 °F 70% 30.37 in 10.0 mi SE 4.6 mph - N/A   Clear
12:55 AM 38.8 °F 35.4 °F 29.8 °F 70% 30.36 in 10.0 mi SE 4.6 mph - N/A   Clear
1:15 AM 38.7 °F 35.2 °F 29.8 °F 71% 30.36 in 10.0 mi SE 4.6 mph - N/A   Clear
1:35 AM 37.8 °F 34.2 °F 29.5 °F 72% 30.36 in 10.0 mi SE 4.6 mph - N/A   Clear
1:55 AM 37.2 °F 34.7 °F 29.3 °F 73% 30.35 in 10.0 mi SE 3.5 mph - N/A   Clear
2:15 AM 37.0 °F 33.3 °F 29.8 °F 75% 30.34 in 10.0 mi SE 4.6 mph - N/A   Scattered Clouds
2:35 AM 36.9 °F 33.1 °F 29.8 °F 76% 30.34 in 10.0 mi SE 4.6 mph - N/A   Scattered Clouds
2:55 AM 36.5 °F 32.7 °F 30.2 °F 78% 30.34 in 10.0 mi SE 4.6 mph - N/A   Scattered Clouds
3:15 AM 36.0 °F 32.1 °F 30.2 °F 80% 30.33 in 10.0 mi SE 4.6 mph - N/A   Clear
3:35 AM 35.4 °F 31.5 °F 30.7 °F 83% 30.33 in 10.0 mi SE 4.6 mph - N/A   Clear
3:55 AM 35.2 °F 31.2 °F 30.7 °F 84% 30.33 in 10.0 mi SE 4.6 mph - N/A   Scattered Clouds
4:15 AM 35.1 °F 32.2 °F 30.9 °F 85% 30.32 in 10.0 mi SE 3.5 mph - N/A   Scattered Clouds
4:35 AM 34.7 °F 31.8 °F 30.7 °F 85% 30.32 in 10.0 mi SE 3.5 mph - N/A   Scattered Clouds
4:55 AM 33.6 °F 30.6 °F 30.2 °F 87% 30.33 in 10.0 mi SE 3.5 mph - N/A   Scattered Clouds
5:15 AM 33.3 °F - 29.7 °F 87% 30.33 in 10.0 mi Calm Calm - N/A   Mostly Cloudy
5:35 AM 32.7 °F 29.6 °F 29.8 °F 89% 30.33 in 10.0 mi ESE 3.5 mph - N/A   Scattered Clouds
5:55 AM 32.2 °F 28.9 °F 29.7 °F 90% 30.33 in 10.0 mi ESE 3.5 mph - N/A   Clear
6:15 AM 32.2 °F 28.9 °F 29.8 °F 91% 30.33 in 10.0 mi East 3.5 mph - N/A   Clear
6:35 AM 31.6 °F 27.0 °F 28.9 °F 90% 30.33 in 7.0 mi ESE 4.6 mph - N/A   Clear
6:55 AM 34.0 °F 29.8 °F 32.0 °F 92% 30.33 in 7.0 mi ESE 4.6 mph - N/A   Clear
7:15 AM 36.7 °F 32.0 °F 32.0 °F 83% 30.33 in 10.0 mi ESE 5.8 mph - N/A   Clear
7:35 AM 38.3 °F 34.8 °F 31.3 °F 76% 30.33 in 10.0 mi ESE 4.6 mph - N/A   Clear
7:55 AM 40.1 °F 36.1 °F 31.5 °F 71% 30.32 in 10.0 mi SE 5.8 mph - N/A   Clear
8:15 AM 42.8 °F 38.0 °F 31.5 °F 64% 30.32 in 10.0 mi SSE 8.1 mph - N/A   Clear
8:35 AM 44.6 °F 40.7 °F 30.4 °F 57% 30.31 in 10.0 mi SSE 6.9 mph - N/A   Clear
8:55 AM 46.6 °F - 31.3 °F 55% 30.31 in 10.0 mi South 5.8 mph - N/A   Clear
9:15 AM 47.8 °F - 31.3 °F 53% 30.31 in 10.0 mi South 8.1 mph - N/A   Clear
9:35 AM 49.5 °F - 32.4 °F 52% 30.31 in 10.0 mi South 6.9 mph - N/A   Clear
9:55 AM 51.3 °F - 31.8 °F 47% 30.31 in 10.0 mi SSW 8.1 mph - N/A   Clear
10:15 AM 52.5 °F - 31.3 °F 44% 30.31 in 10.0 mi SSW 8.1 mph - N/A   Clear
10:35 AM 54.1 °F - 32.2 °F 43% 30.30 in 10.0 mi South 8.1 mph - N/A   Clear
10:55 AM 54.7 °F - 31.3 °F 41% 30.30 in 10.0 mi South 6.9 mph - N/A   Clear
11:15 AM 56.3 °F - 31.3 °F 39% 30.29 in 10.0 mi South 4.6 mph - N/A   Clear
11:35 AM 56.8 °F - 30.6 °F 37% 30.28 in 10.0 mi South 5.8 mph - N/A   Clear
11:55 AM 58.1 °F - 30.4 °F 35% 30.27 in 10.0 mi South 6.9 mph - N/A   Clear
12:15 PM 58.6 °F - 30.4 °F 34% 30.26 in 10.0 mi SE 8.1 mph - N/A   Clear
12:35 PM 60.1 °F - 30.6 °F 33% 30.26 in 10.0 mi SSE 6.9 mph - N/A   Clear
12:55 PM 60.3 °F - 29.3 °F 31% 30.25 in 10.0 mi South 9.2 mph - N/A   Clear
1:15 PM 59.9 °F - 28.2 °F 30% 30.24 in 10.0 mi South 9.2 mph - N/A   Clear
1:35 PM 61.5 °F - 28.9 °F 29% 30.23 in 10.0 mi SE 6.9 mph - N/A   Clear
1:55 PM 61.7 °F - 27.1 °F 27% 30.23 in 10.0 mi SW 6.9 mph - N/A   Clear
2:15 PM 62.2 °F - 28.4 °F 28% 30.23 in 10.0 mi SSE 4.6 mph - N/A   Clear
2:35 PM 62.2 °F - 26.2 °F 25% 30.21 in 10.0 mi SSE 3.5 mph - N/A   Clear
2:55 PM 63.1 °F - 27.9 °F 26% 30.20 in 10.0 mi South 8.1 mph 16.1 mph N/A   Clear
3:15 PM 64.0 °F - 29.8 °F 28% 30.19 in 10.0 mi SE 8.1 mph - N/A   Clear
3:35 PM 63.5 °F - 28.8 °F 27% 30.18 in 10.0 mi SE 9.2 mph - N/A   Clear
3:55 PM 63.7 °F - 28.9 °F 27% 30.16 in 10.0 mi SSE 8.1 mph - N/A   Clear
4:15 PM 64.2 °F - 29.3 °F 27% 30.16 in 10.0 mi ESE 10.4 mph - N/A   Clear
4:35 PM 63.7 °F - 28.9 °F 27% 30.14 in 10.0 mi SE 10.4 mph 18.4 mph N/A   Clear
4:55 PM 63.9 °F - 28.2 °F 26% 30.13 in 10.0 mi SE 10.4 mph - N/A   Clear
5:15 PM 63.1 °F - 29.5 °F 28% 30.13 in 10.0 mi SE 9.2 mph - N/A   Clear
5:35 PM 63.5 °F - 29.3 °F 28% 30.13 in 10.0 mi SE 9.2 mph - N/A   Clear
5:55 PM 63.0 °F - 30.2 °F 29% 30.12 in 10.0 mi SE 8.1 mph - N/A   Clear
6:15 PM 62.2 °F - 29.7 °F 29% 30.11 in 10.0 mi SE 8.1 mph - N/A   Clear
6:35 PM 61.2 °F - 30.0 °F 31% 30.11 in 10.0 mi SSE 6.9 mph - N/A   Clear
6:55 PM 60.4 °F - 29.7 °F 31% 30.11 in 10.0 mi SSE 9.2 mph - N/A   Clear
7:15 PM 58.6 °F - 30.9 °F 35% 30.11 in 10.0 mi SE 4.6 mph - N/A   Clear
7:35 PM 55.9 °F - 32.9 °F 42% 30.11 in 10.0 mi SE 4.6 mph - N/A   Clear
7:55 PM 54.5 °F - 33.1 °F 44% 30.12 in 10.0 mi Calm Calm - N/A   Clear
8:15 PM 52.9 °F - 34.2 °F 49% 30.12 in 10.0 mi Calm Calm - N/A   Clear
8:35 PM 50.7 °F - 34.5 °F 54% 30.12 in 10.0 mi ESE 5.8 mph - N/A   Clear
8:55 PM 49.5 °F - 34.9 °F 57% 30.12 in 10.0 mi ESE 4.6 mph - N/A   Clear
9:15 PM 49.6 °F - 34.0 °F 55% 30.12 in 10.0 mi Calm Calm - N/A   Scattered Clouds
9:35 PM 50.0 °F - 32.9 °F 52% 30.12 in 10.0 mi ESE 4.6 mph - N/A   Scattered Clouds
9:55 PM 48.2 °F - 33.3 °F 56% 30.12 in 10.0 mi ESE 3.5 mph - N/A   Clear
10:15 PM 48.4 °F - 33.4 °F 56% 30.11 in 10.0 mi ESE 4.6 mph - N/A   Scattered Clouds
10:35 PM 49.1 °F - 33.1 °F 54% 30.11 in 10.0 mi SE 3.5 mph - N/A   Clear
10:55 PM 49.3 °F - 34.0 °F 56% 30.11 in 10.0 mi Calm Calm - N/A   Clear
11:15 PM 48.7 °F - 34.0 °F 57% 30.10 in 10.0 mi SE 3.5 mph - N/A   Scattered Clouds
11:35 PM 47.8 °F - 34.2 °F 59% 30.10 in 10.0 mi SE 3.5 mph - N/A   Clear
11:55 PM 48.9 °F - 34.2 °F 57% 30.10 in 10.0 mi SE 4.6 mph - N/A   Clear